KK6MIG-13 Weather Reports


time (UTC)temp
C
wind
direction
speed
KPH
gust
KPH
rain 1hr
cm
rain 24hr
cm
rain mn
cm
humidity
%
barometer
mb
20260506105244 13 296 6.4 14.5 0.00 0.03 0.00 1 1017.7
20260506105153 13 248 6.4 14.5 0.00 0.03 0.00 1 1017.7
20260506105148 13 275 6.4 14.5 0.00 0.03 0.00 1 1017.7
20260506104944 13 297 8.0 14.5 0.00 0.03 0.00 1 1017.7
20260506104844 13 286 8.0 14.5 0.00 0.03 0.00 1 1017.7
20260506104744 13 296 8.0 14.5 0.00 0.03 0.00 1 1017.7
20260506104644 13 286 8.0 14.5 0.00 0.03 0.00 1 1017.7
20260506104538 13 279 8.0 14.5 0.00 0.03 0.00 1 1017.7
20260506104438 13 326 8.0 14.5 0.00 0.03 0.00 1 1017.7
20260506104346 13 284 6.4 12.9 0.00 0.03 0.00 1 1017.7
20260506104342 13 288 8.0 12.9 0.00 0.03 0.00 1 1017.7
20260506104138 13 286 8.0 12.9 0.00 0.03 0.00 1 1017.7
20260506104037 13 288 8.0 12.9 0.00 0.03 0.00 1 1017.7
20260506103938 13 278 8.0 12.9 0.00 0.03 0.00 1 1017.6
20260506103838 13 277 8.0 12.9 0.00 0.03 0.00 1 1017.6
20260506103738 13 285 8.0 12.9 0.00 0.03 0.00 1 1017.7
20260506103638 13 277 8.0 17.7 0.00 0.03 0.00 1 1017.7
20260506103537 13 272 8.0 17.7 0.00 0.03 0.00 1 1017.7
20260506103437 13 277 8.0 17.7 0.00 0.03 0.00 1 1017.7
20260506103334 13 270 8.0 17.7 0.00 0.03 0.00 1 1017.7
20260506103234 13 267 8.0 17.7 0.00 0.03 0.00 1 1017.7
20260506103134 13 286 8.0 17.7 0.00 0.03 0.00 1 1017.7
20260506103034 13 296 8.0 17.7 0.00 0.03 0.00 1 1017.7
20260506102933 13 273 8.0 17.7 0.00 0.03 0.00 1 1017.7
20260506102833 13 295 8.0 17.7 0.00 0.03 0.00 1 1017.6
20260506102734 13 289 6.4 17.7 0.00 0.03 0.00 1 1017.7
20260506102633 12 288 6.4 14.5 0.00 0.03 0.00 1 1017.7
20260506102534 13 279 6.4 14.5 0.00 0.03 0.00 1 1017.7
20260506102434 12 280 6.4 14.5 0.00 0.03 0.00 1 1017.7
20260506102334 12 281 6.4 14.5 0.00 0.03 0.00 1 1017.7
20260506102234 12 279 8.0 14.5 0.00 0.03 0.00 1 1017.7
20260506102133 12 284 8.0 14.5 0.00 0.03 0.00 1 1017.7
20260506102034 12 281 6.4 14.5 0.00 0.03 0.00 1 1017.6
20260506101934 12 267 6.4 11.3 0.00 0.05 0.00 1 1017.6
20260506101834 12 269 6.4 11.3 0.00 0.05 0.00 1 1017.6
20260506101734 12 281 8.0 11.3 0.00 0.05 0.00 1 1017.6
20260506101634 12 279 6.4 12.9 0.00 0.05 0.00 1 1017.6
20260506101534 12 286 6.4 12.9 0.00 0.05 0.00 1 1017.6
20260506101430 12 255 6.4 12.9 0.00 0.05 0.00 1 1017.6
20260506101330 12 279 6.4 12.9 0.00 0.05 0.00 1 1017.6
20260506101230 12 267 6.4 12.9 0.00 0.05 0.00 1 1017.6
20260506101129 12 281 6.4 12.9 0.00 0.05 0.00 1 1017.6
20260506101029 12 269 6.4 12.9 0.00 0.05 0.00 1 1017.6
20260506100930 12 279 6.4 12.9 0.00 0.05 0.00 1 1017.6
20260506100830 12 276 6.4 12.9 0.00 0.05 0.00 1 1017.6
20260506100730 12 276 6.4 12.9 0.00 0.05 0.00 1 1017.6
20260506100630 12 272 6.4 12.9 0.00 0.05 0.00 1 1017.5
20260506100550 12 304 6.4 11.3 0.00 0.05 0.00 1 1017.5
20260506100430 12 269 6.4 11.3 0.00 0.05 0.00 1 1017.6
20260506100330 12 259 6.4 11.3 0.00 0.05 0.00 1 1017.5
20260506100230 12 286 6.4 11.3 0.00 0.05 0.00 1 1017.6
20260506100130 12 276 6.4 11.3 0.00 0.05 0.00 1 1017.6
20260506100030 12 283 6.4 12.9 0.00 0.05 0.00 1 1017.5
20260506095929 12 278 6.4 12.9 0.00 0.05 0.00 1 1017.6
20260506095830 12 286 6.4 12.9 0.00 0.05 0.00 1 1017.6
20260506095730 13 292 6.4 12.9 0.00 0.05 0.00 1 1017.6
20260506095630 12 281 6.4 12.9 0.00 0.05 0.00 1 1017.6
20260506095525 12 277 6.4 12.9 0.00 0.05 0.00 1 1017.5
20260506095426 12 286 6.4 12.9 0.00 0.05 0.00 1 1017.5
20260506095326 12 286 6.4 14.5 0.00 0.05 0.00 1 1017.6
20260506095226 12 269 6.4 14.5 0.00 0.05 0.00 1 1017.6
20260506095126 12 286 6.4 14.5 0.00 0.05 0.00 1 1017.6
20260506095023 12 290 4.8 14.5 0.00 0.05 0.00 1 1017.6
20260506094924 12 274 4.8 14.5 0.00 0.05 0.00 1 1017.6
20260506094824 13 294 4.8 14.5 0.00 0.05 0.00 1 1017.6
20260506094732 13 308 4.8 14.5 0.00 0.05 0.00 1 1017.6
20260506094728 13 282 4.8 14.5 0.00 0.05 0.00 1 1017.6
20260506094532 13 257 4.8 14.5 0.00 0.05 0.00 1 1017.7
20260506094528 13 288 4.8 14.5 0.00 0.05 0.00 1 1017.6
20260506094324 13 279 4.8 14.5 0.00 0.05 0.00 1 1017.7
20260506094223 13 279 4.8 14.5 0.00 0.05 0.00 1 1017.7
20260506094122 13 286 6.4 14.5 0.00 0.05 0.00 1 1017.7
20260506094022 13 259 6.4 14.5 0.00 0.05 0.00 1 1017.7
20260506093922 13 271 6.4 14.5 0.00 0.05 0.00 1 1017.7
20260506093820 13 290 6.4 14.5 0.00 0.05 0.00 1 1017.7
20260506093720 13 294 6.4 14.5 0.00 0.05 0.00 1 1017.7
20260506093619 13 281 6.4 14.5 0.00 0.05 0.00 1 1017.7
20260506093519 13 307 6.4 14.5 0.00 0.05 0.00 1 1017.6
20260506093420 13 276 8.0 14.5 0.00 0.05 0.00 1 1017.7
20260506093320 13 277 8.0 16.1 0.00 0.05 0.00 1 1017.6
20260506093217 13 277 8.0 16.1 0.00 0.05 0.00 1 1017.6
20260506093117 13 275 8.0 16.1 0.00 0.05 0.00 1 1017.6
20260506093018 13 289 8.0 16.1 0.00 0.05 0.00 1 1017.6
20260506092918 13 281 8.0 16.1 0.00 0.05 0.00 1 1017.6
20260506092818 13 275 8.0 16.1 0.00 0.05 0.00 1 1017.6
20260506092717 13 301 8.0 16.1 0.00 0.05 0.00 1 1017.6
20260506092617 13 266 8.0 16.1 0.00 0.05 0.00 1 1017.5
20260506092517 13 270 8.0 16.1 0.00 0.05 0.00 1 1017.5
20260506092417 13 281 8.0 16.1 0.00 0.05 0.00 1 1017.5
20260506092318 13 286 8.0 14.5 0.00 0.05 0.00 1 1017.5
20260506092218 13 273 8.0 14.5 0.00 0.05 0.00 1 1017.5
20260506092116 13 286 8.0 14.5 0.00 0.05 0.00 1 1017.5
20260506092015 13 288 8.0 14.5 0.00 0.05 0.00 1 1017.5
20260506091914 13 284 8.0 14.5 0.00 0.05 0.00 1 1017.5
20260506091814 13 279 8.0 14.5 0.00 0.05 0.00 1 1017.5
20260506091714 13 294 8.0 14.5 0.00 0.05 0.00 1 1017.5
20260506091614 13 281 8.0 14.5 0.00 0.05 0.00 1 1017.5
20260506091514 13 252 8.0 14.5 0.00 0.05 0.00 1 1017.5
20260506091414 13 296 8.0 14.5 0.00 0.05 0.00 1 1017.5
20260506091322 13 292 8.0 14.5 0.00 0.05 0.00 1 1017.5
20260506091318 13 281 8.0 14.5 0.00 0.05 0.00 1 1017.5
20260506091113 13 259 6.4 14.5 0.00 0.05 0.00 1 1017.5
20260506091013 13 273 6.4 14.5 0.00 0.05 0.00 1 1017.5
20260506090910 13 277 6.4 14.5 0.00 0.05 0.00 1 1017.5
20260506090810 13 294 6.4 14.5 0.00 0.05 0.00 1 1017.5
20260506090710 13 279 6.4 12.9 0.00 0.05 0.00 1 1017.5
20260506090608 13 294 6.4 14.5 0.00 0.05 0.00 1 1017.5
20260506090507 13 265 6.4 14.5 0.00 0.05 0.00 1 1017.5
20260506090404 13 277 8.0 14.5 0.00 0.05 0.00 1 1017.5
20260506090301 13 280 8.0 14.5 0.00 0.05 0.00 1 1017.5
20260506090159 13 274 8.0 14.5 0.00 0.05 0.00 1 1017.5
20260506090100 13 265 8.0 14.5 0.00 0.05 0.00 1 1017.5
20260506085958 13 278 8.0 14.5 0.00 0.05 0.00 1 1017.5
20260506085857 13 306 8.0 17.7 0.00 0.05 0.00 1 1017.5
20260506085756 13 277 9.7 17.7 0.00 0.05 0.00 1 1017.6
20260506085655 13 288 9.7 17.7 0.00 0.05 0.00 1 1017.5
20260506085554 13 267 9.7 17.7 0.00 0.05 0.00 1 1017.5
20260506085450 13 286 9.7 17.7 0.00 0.05 0.00 1 1017.5
20260506085348 13 283 8.0 17.7 0.00 0.05 0.00 1 1017.5
20260506085246 13 286 8.0 17.7 0.00 0.05 0.00 1 1017.5
20260506085145 13 279 8.0 17.7 0.00 0.05 0.00 1 1017.5
20260506085045 13 281 8.0 17.7 0.00 0.05 0.00 1 1017.5
20260506084945 13 284 8.0 17.7 0.00 0.05 0.00 1 1017.5
20260506084840 13 286 8.0 16.1 0.00 0.05 0.00 1 1017.4
20260506084739 13 291 8.0 16.1 0.00 0.05 0.00 1 1017.5
20260506084639 13 295 8.0 16.1 0.00 0.05 0.00 1 1017.5
20260506084558 13 271 8.0 16.1 0.00 0.05 0.00 1 1017.6
20260506084554 13 300 9.7 16.1 0.00 0.05 0.00 1 1017.5
20260506084550 13 286 9.7 16.1 0.00 0.05 0.00 1 1017.6
20260506084546 13 272 8.0 16.1 0.00 0.05 0.00 1 1017.6
20260506084133 13 281 9.7 16.1 0.00 0.05 0.00 1 1017.5
20260506084034 13 261 8.0 16.1 0.00 0.05 0.00 1 1017.6
20260506083931 13 274 8.0 16.1 0.00 0.05 0.00 1 1017.6
20260506083826 13 281 9.7 16.1 0.00 0.05 0.00 1 1017.5
20260506083726 13 310 9.7 16.1 0.00 0.05 0.00 1 1017.5
20260506083626 13 271 9.7 16.1 0.00 0.05 0.00 1 1017.5
20260506083526 13 279 9.7 16.1 0.00 0.05 0.00 1 1017.5
20260506083425 13 283 9.7 16.1 0.00 0.05 0.00 1 1017.5
20260506083322 13 284 8.0 16.1 0.00 0.05 0.00 1 1017.5
20260506083219 13 275 9.7 14.5 0.00 0.05 0.00 1 1017.5
20260506083119 13 282 8.0 14.5 0.00 0.05 0.00 1 1017.6
20260506083019 13 263 9.7 14.5 0.00 0.08 0.00 1 1017.6
20260506082917 13 282 9.7 14.5 0.00 0.08 0.00 1 1017.6
20260506082810 13 281 8.0 14.5 0.00 0.08 0.00 1 1017.6
20260506082710 13 286 8.0 14.5 0.00 0.08 0.00 1 1017.6
20260506082610 13 277 8.0 14.5 0.00 0.08 0.00 1 1017.6
20260506082509 13 275 8.0 14.5 0.00 0.08 0.00 1 1017.7
20260506082411 13 279 6.4 14.5 0.00 0.08 0.00 1 1017.7
20260506082408 13 277 6.4 14.5 0.00 0.08 0.00 1 1017.7
20260506082203 13 275 6.4 14.5 0.00 0.08 0.00 1 1017.7
20260506082103 13 300 6.4 14.5 0.00 0.08 0.00 1 1017.7
20260506082004 13 274 4.8 14.5 0.00 0.10 0.00 1 1017.7
20260506081902 13 278 4.8 11.3 0.00 0.10 0.00 1 1017.7
20260506081756 13 263 4.8 11.3 0.00 0.10 0.00 1 1017.7
20260506081656 13 272 4.8 11.3 0.00 0.10 0.00 1 1017.7
20260506081555 13 239 4.8 11.3 0.00 0.10 0.00 1 1017.8
20260506081455 13 266 4.8 11.3 0.00 0.10 0.00 1 1017.7
20260506081355 13 281 4.8 11.3 0.00 0.10 0.00 1 1017.7
20260506081258 13 281 4.8 11.3 0.00 0.10 0.00 1 1017.7
20260506081254 13 279 4.8 11.3 0.00 0.10 0.00 1 1017.7
20260506081050 13 280 6.4 11.3 0.00 0.10 0.00 1 1017.7
20260506080950 13 294 6.4 11.3 0.00 0.10 0.00 1 1017.7
20260506080849 13 269 6.4 11.3 0.00 0.10 0.00 1 1017.7
20260506080744 13 292 6.4 11.3 0.00 0.10 0.00 1 1017.7
20260506080644 13 271 6.4 11.3 0.00 0.10 0.00 1 1017.7
20260506080543 13 277 6.4 12.9 0.00 0.13 0.00 1 1017.7
20260506080443 13 281 6.4 12.9 0.00 0.13 0.00 1 1017.7
20260506080343 13 280 6.4 12.9 0.00 0.13 0.00 1 1017.6
20260506080237 13 280 6.4 12.9 0.00 0.13 0.00 1 1017.6
20260506080137 13 276 6.4 12.9 0.00 0.13 0.00 1 1017.6
20260506073510 13 267 6.4 12.9 0.00 0.15 0.00 1 1017.4
20260506073410 13 294 6.4 12.9 0.00 0.15 0.00 1 1017.4
20260506073306 13 267 6.4 12.9 0.00 0.15 0.00 1 1017.4
20260506073204 13 290 6.4 12.9 0.00 0.15 0.00 1 1017.4
20260506073104 13 294 6.4 12.9 0.00 0.15 0.00 1 1017.4
20260506073004 13 281 6.4 12.9 0.00 0.18 0.00 1 1017.4
20260506072903 13 281 6.4 12.9 0.00 0.18 0.00 1 1017.3
20260506072801 13 279 6.4 12.9 0.00 0.18 0.00 1 1017.4
20260506072655 13 281 6.4 11.3 0.00 0.18 0.00 1 1017.4
20260506072555 13 275 4.8 11.3 0.00 0.18 0.00 1 1017.4
20260506072455 13 281 4.8 11.3 0.00 0.18 0.00 1 1017.3
20260506072355 13 280 4.8 11.3 0.00 0.18 0.00 1 1017.3
20260506072255 13 273 4.8 11.3 0.00 0.18 0.00 1 1017.3
20260506072151 13 281 4.8 12.9 0.00 0.18 0.00 1 1017.3
20260506072049 13 281 6.4 12.9 0.00 0.18 0.00 1 1017.3
20260506072002 13 254 6.4 12.9 0.00 0.18 0.00 1 1017.3
20260506071853 13 275 6.4 12.9 0.00 0.18 0.00 1 1017.3
20260506071643 13 287 6.4 12.9 0.00 0.18 0.00 1 1017.3
20260506071543 13 290 8.0 14.5 0.00 0.18 0.00 1 1017.3
20260506071443 13 300 8.0 14.5 0.00 0.18 0.00 1 1017.3
20260506071343 13 284 8.0 14.5 0.00 0.18 0.00 1 1017.3
20260506071243 13 296 8.0 14.5 0.00 0.18 0.00 1 1017.3
20260506071137 13 277 8.0 14.5 0.00 0.18 0.00 1 1017.3
20260506071037 13 288 6.4 14.5 0.00 0.18 0.00 1 1017.3
20260506070937 13 265 6.4 14.5 0.00 0.18 0.00 1 1017.3
20260506070838 13 284 6.4 14.5 0.00 0.18 0.00 1 1017.3
20260506070736 13 265 6.4 14.5 0.00 0.18 0.00 1 1017.3
20260506070631 13 294 8.0 14.5 0.00 0.18 0.00 1 1017.3
20260506070532 13 305 8.0 14.5 0.00 0.18 0.00 1 1017.3
20260506070432 13 310 8.0 16.1 0.00 0.18 0.00 1 1017.3
20260506070331 13 289 8.0 16.1 0.00 0.18 0.00 1 1017.2
20260506070230 13 271 9.7 16.1 0.00 0.18 0.00 1 1017.2
20260506070125 13 285 9.7 16.1 0.00 0.18 0.00 1 1017.2
20260506062455 13 282 9.7 16.1 0.00 0.20 0.18 1 1017.0
20260506062348 13 269 9.7 16.1 0.00 0.20 0.18 1 1017.0
20260506062248 13 282 9.7 16.1 0.00 0.20 0.18 1 1017.0
20260506062148 13 284 9.7 16.1 0.00 0.20 0.18 1 1017.0
20260506062048 13 287 8.0 16.1 0.00 0.20 0.18 1 1017.0
20260506061959 13 279 9.7 16.1 0.00 0.20 0.18 1 1016.9
20260506061955 13 263 9.7 16.1 0.00 0.20 0.18 1 1016.9
20260506061951 13 289 9.7 16.1 0.00 0.20 0.18 1 1016.9
20260506061643 13 285 9.7 16.1 0.00 0.20 0.18 1 1016.9
20260506061542 13 290 9.7 16.1 0.00 0.20 0.18 1 1016.9
20260506061442 13 267 9.7 17.7 0.00 0.20 0.18 1 1016.9
20260506061337 13 267 9.7 17.7 0.00 0.20 0.18 1 1016.9
20260506061236 13 279 9.7 17.7 0.00 0.20 0.18 1 1016.8
20260506061136 13 297 9.7 17.7 0.00 0.20 0.18 1 1016.9
20260506061036 13 283 9.7 17.7 0.00 0.20 0.18 1 1016.9
20260506060936 13 274 9.7 17.7 0.00 0.20 0.18 1 1016.9
20260506060833 13 284 9.7 17.7 0.00 0.20 0.18 1 1016.9
20260506060733 13 312 11.3 17.7 0.00 0.20 0.18 1 1016.9
20260506060632 13 295 11.3 17.7 0.00 0.20 0.18 1 1016.8
20260506060532 13 297 11.3 17.7 0.00 0.20 0.18 1 1016.8
20260506060433 13 271 11.3 17.7 0.00 0.20 0.18 1 1016.9
20260506060429 13 279 9.7 17.7 0.00 0.20 0.18 1 1016.8
20260506060225 13 276 11.3 17.7 0.00 0.20 0.18 1 1016.9
20260506060125 13 277 9.7 17.7 0.00 0.20 0.18 1 1016.9
20260506051330 13 252 9.7 17.7 0.00 0.25 0.18 1 1016.6
20260506051225 13 236 9.7 16.1 0.00 0.25 0.18 1 1016.6
20260506051125 13 279 9.7 16.1 0.00 0.25 0.18 1 1016.6
20260506051024 13 289 9.7 16.1 0.00 0.25 0.18 1 1016.6
20260506050924 13 265 11.3 19.3 0.00 0.25 0.18 1 1016.6
20260506050824 13 278 11.3 19.3 0.00 0.25 0.18 1 1016.6
20260506050721 13 273 9.7 19.3 0.00 0.25 0.18 1 1016.6
20260506050621 13 282 9.7 19.3 0.00 0.25 0.18 1 1016.5
20260506050521 13 336 11.3 19.3 0.00 0.25 0.18 1 1016.5
20260506050421 13 281 11.3 19.3 0.00 0.25 0.18 1 1016.5
20260506050318 13 276 11.3 19.3 0.00 0.25 0.18 1 1016.5
20260506050213 13 291 11.3 19.3 0.00 0.25 0.18 1 1016.5
20260506050112 13 269 11.3 19.3 0.00 0.25 0.18 1 1016.5
20260506045100 13 282 9.7 17.7 0.00 0.25 0.18 1 1016.5
20260506045000 13 277 9.7 17.7 0.00 0.25 0.18 1 1016.4
20260506044900 13 280 9.7 17.7 0.00 0.25 0.18 1 1016.4
20260506044800 13 281 9.7 17.7 0.00 0.25 0.18 1 1016.5
20260506044654 13 267 9.7 16.1 0.00 0.25 0.18 1 1016.5
20260506044554 13 272 8.0 16.1 0.00 0.25 0.18 1 1016.5
20260506044454 13 252 8.0 16.1 0.00 0.25 0.18 1 1016.5
20260506044354 13 291 8.0 16.1 0.00 0.25 0.18 1 1016.5
20260506044254 13 254 8.0 16.1 0.00 0.25 0.18 1 1016.5
20260506044150 13 270 8.0 16.1 0.00 0.25 0.18 1 1016.4
20260506044052 13 311 8.0 16.1 0.00 0.25 0.18 1 1016.4
20260506043950 13 271 8.0 16.1 0.00 0.25 0.18 1 1016.4
20260506043853 13 286 8.0 16.1 0.00 0.25 0.18 1 1016.4
20260506043748 13 277 9.7 16.1 0.00 0.25 0.18 1 1016.3
20260506043642 13 277 9.7 16.1 0.00 0.25 0.18 1 1016.3
20260506043542 13 255 9.7 17.7 0.00 0.25 0.18 1 1016.4
20260506043442 13 278 9.7 17.7 0.00 0.28 0.18 1 1016.3
20260506043343 13 304 9.7 17.7 0.00 0.28 0.18 1 1016.1
20260506043241 13 269 9.7 17.7 0.00 0.28 0.18 1 1016.3
20260506043136 13 312 9.7 17.7 0.00 0.28 0.18 1 1016.3
20260506043036 13 300 9.7 17.7 0.00 0.28 0.18 1 1016.3
20260506042937 13 271 9.7 17.7 0.00 0.28 0.18 1 1016.3
20260506042836 13 281 9.7 17.7 0.00 0.28 0.18 1 1016.3
20260506042736 13 295 9.7 17.7 0.00 0.28 0.18 1 1016.1
20260506042631 13 288 9.7 17.7 0.00 0.28 0.18 1 1016.1
20260506042531 13 265 9.7 17.7 0.00 0.28 0.18 1 1016.1
20260506042430 13 284 9.7 17.7 0.00 0.28 0.18 1 1016.1
20260506042330 13 283 9.7 16.1 0.00 0.28 0.18 1 1016.1
20260506042230 13 285 9.7 16.1 0.00 0.28 0.18 1 1016.1
20260506042124 13 261 9.7 16.1 0.00 0.28 0.18 1 1016.0
20260506042033 13 255 9.7 16.1 0.00 0.28 0.18 1 1016.1
20260506042029 13 273 9.7 16.1 0.00 0.28 0.18 1 1016.1
20260506041824 13 260 9.7 16.1 0.00 0.28 0.18 1 1016.0
20260506041724 13 336 8.0 16.1 0.00 0.28 0.18 1 1016.0
20260506041619 13 279 8.0 16.1 0.00 0.28 0.18 1 1016.0
20260506041518 13 279 8.0 16.1 0.00 0.28 0.18 1 1016.0
20260506041418 13 293 6.4 16.1 0.00 0.28 0.18 1 1016.0
20260506041327 13 263 6.4 14.5 0.00 0.28 0.18 1 1016.0
20260506041323 13 264 6.4 14.5 0.00 0.28 0.18 1 1016.0
20260506041120 13 267 6.4 14.5 0.00 0.28 0.18 1 1015.9
20260506041116 13 274 6.4 14.5 0.00 0.28 0.18 1 1015.9
20260506040912 13 274 8.0 16.1 0.00 0.28 0.18 1 1015.9
20260506040812 13 276 8.0 16.1 0.00 0.28 0.18 1 1015.9
20260506040712 13 275 8.0 16.1 0.00 0.28 0.18 1 1015.8
20260506040606 13 271 8.0 16.1 0.00 0.28 0.18 1 1015.8
20260506040506 13 279 8.0 16.1 0.00 0.28 0.18 1 1015.8
20260506040406 13 281 9.7 16.1 0.00 0.28 0.18 1 1015.8
20260506040306 13 271 9.7 16.1 0.00 0.28 0.18 1 1015.7
20260506040206 13 269 9.7 16.1 0.00 0.28 0.18 1 1015.8
20260506040100 13 254 9.7 16.1 0.00 0.28 0.18 1 1015.7
20260506040000 13 250 8.0 16.1 0.00 0.28 0.18 1 1015.7
20260506035900 13 271 8.0 14.5 0.00 0.28 0.18 1 1015.7
20260506035800 13 268 8.0 14.5 0.00 0.28 0.18 1 1015.7
20260506035700 13 266 8.0 14.5 0.00 0.28 0.18 1 1015.7
20260506035556 13 265 8.0 14.5 0.00 0.28 0.18 1 1015.7
20260506035456 13 248 9.7 17.7 0.00 0.28 0.18 1 1015.7
20260506035356 13 286 9.7 17.7 0.00 0.28 0.18 1 1015.7
20260506035256 13 257 9.7 17.7 0.00 0.28 0.18 1 1015.7
20260506035154 13 251 9.7 17.7 0.00 0.28 0.18 1 1015.7
20260506035048 13 269 9.7 17.7 0.00 0.28 0.18 1 1015.6
20260506034948 13 272 9.7 17.7 0.00 0.28 0.18 1 1015.6
20260506034848 13 244 8.0 17.7 0.00 0.28 0.18 1 1015.6
20260506034748 13 265 8.0 17.7 0.00 0.28 0.18 1 1015.6
20260506034648 13 229 8.0 17.7 0.00 0.28 0.18 1 1015.6
20260506034542 13 274 8.0 17.7 0.00 0.28 0.18 1 1015.6
20260506034442 13 257 8.0 17.7 0.00 0.28 0.18 1 1015.5
20260506034342 13 277 6.4 16.1 0.00 0.28 0.18 1 1015.5
20260506034242 13 274 6.4 16.1 0.00 0.28 0.18 1 1015.5
20260506034142 13 288 6.4 16.1 0.00 0.28 0.18 1 1015.5
20260506034038 13 290 6.4 16.1 0.00 0.28 0.18 1 1015.5
20260506033936 13 271 8.0 17.7 0.00 0.28 0.18 1 1015.5
20260506033836 13 275 8.0 17.7 0.00 0.28 0.18 1 1015.4
20260506033744 13 286 8.0 17.7 0.00 0.28 0.18 1 1015.4
20260506033740 13 277 8.0 17.7 0.00 0.28 0.18 1 1015.5
20260506033530 13 271 8.0 17.7 0.00 0.28 0.18 1 1015.4
20260506033430 13 249 8.0 17.7 0.00 0.28 0.18 1 1015.5
20260506033330 13 269 9.7 17.7 0.00 0.28 0.18 1 1015.4
20260506033238 13 267 9.7 17.7 0.00 0.28 0.18 1 1015.4
20260506033234 13 254 9.7 17.7 0.00 0.28 0.18 1 1015.5
20260506033024 13 263 9.7 17.7 0.00 0.28 0.18 1 1015.4
20260506032924 13 229 9.7 17.7 0.00 0.28 0.18 1 1015.4
20260506032833 13 250 9.7 16.1 0.00 0.28 0.18 1 1015.3
20260506032828 13 233 9.7 16.1 0.00 0.28 0.18 1 1015.4
20260506032624 13 242 9.7 16.1 0.00 0.28 0.18 1 1015.4
20260506032518 13 278 8.0 16.1 0.00 0.28 0.18 1 1015.3
20260506032418 13 292 8.0 16.1 0.00 0.28 0.18 1 1015.3
20260506032318 13 275 9.7 16.1 0.00 0.28 0.18 1 1015.3
20260506032218 13 284 9.7 16.1 0.00 0.28 0.18 1 1015.3
20260506032118 13 254 9.7 16.1 0.00 0.28 0.18 1 1015.3
20260506032012 13 257 9.7 16.1 0.00 0.28 0.18 1 1015.3
20260506031912 13 262 9.7 16.1 0.00 0.28 0.18 1 1015.3
20260506031812 13 294 9.7 20.9 0.00 0.28 0.18 1 1015.3
20260506031710 13 250 9.7 20.9 0.00 0.28 0.18 1 1015.3
20260506031609 13 279 9.7 20.9 0.00 0.28 0.18 1 1015.2
20260506031504 13 237 9.7 20.9 0.00 0.28 0.18 1 1015.2
20260506031404 13 284 9.7 20.9 0.00 0.28 0.18 1 1015.2
20260506031304 13 277 8.0 20.9 0.00 0.28 0.18 1 1015.1
20260506031212 13 278 8.0 20.9 0.00 0.28 0.18 1 1015.1
20260506031208 13 261 8.0 20.9 0.00 0.28 0.18 1 1015.1
20260506031004 13 281 8.0 20.9 0.00 0.28 0.18 1 1015.1
20260506030903 13 252 8.0 20.9 0.00 0.28 0.18 1 1015.1
20260506030805 13 275 8.0 16.1 0.00 0.28 0.18 1 1015.1
20260506030704 14 292 8.0 20.9 0.00 0.28 0.18 1 1015.1
20260506030602 14 274 8.0 20.9 0.00 0.28 0.18 1 1015.1
20260506030456 14 292 9.7 20.9 0.00 0.28 0.18 1 1015.1
20260506030355 14 269 9.7 20.9 0.00 0.28 0.18 1 1015.1
20260506030255 14 278 9.7 20.9 0.00 0.28 0.18 1 1015.1
20260506030156 14 274 11.3 20.9 0.00 0.28 0.18 1 1015.1
20260506030056 14 279 11.3 20.9 0.00 0.28 0.18 1 1015.1
20260506025956 14 284 11.3 20.9 0.00 0.28 0.18 1 1015.1
20260506025856 13 265 11.3 20.9 0.00 0.28 0.18 1 1015.1
20260506025756 13 229 11.3 19.3 0.00 0.28 0.18 1 1015.1
20260506025656 13 235 11.3 19.3 0.00 0.28 0.18 1 1015.1
20260506025556 13 234 11.3 19.3 0.00 0.28 0.18 1 1015.1
20260506025456 13 269 11.3 19.3 0.00 0.28 0.18 1 1015.0
20260506025358 13 323 11.3 19.3 0.00 0.28 0.18 1 1015.0
20260506025354 14 241 11.3 19.3 0.00 0.28 0.18 1 1015.0
20260506025150 14 271 11.3 19.3 0.00 0.28 0.18 1 1015.0
20260506025059 14 265 11.3 17.7 0.00 0.28 0.18 1 1015.0
20260506025054 14 285 11.3 17.7 0.00 0.28 0.18 1 1015.0
20260506024850 14 268 11.3 19.3 0.00 0.28 0.18 1 1015.0
20260506024747 14 238 11.3 19.3 0.00 0.28 0.18 1 1015.0
20260506024647 14 265 12.9 20.9 0.00 0.28 0.18 1 1014.9
20260506024548 14 250 12.9 20.9 0.00 0.28 0.18 1 1015.0
20260506024448 14 211 12.9 20.9 0.00 0.28 0.18 1 1015.0
20260506024348 14 239 12.9 22.5 0.00 0.28 0.18 1 1014.9
20260506024248 14 240 14.5 22.5 0.00 0.28 0.18 1 1014.9
20260506024149 14 229 12.9 22.5 0.00 0.28 0.18 1 1014.9
20260506024048 14 217 12.9 22.5 0.00 0.28 0.18 1 1014.9
20260506023948 14 282 12.9 22.5 0.00 0.28 0.18 1 1015.0
20260506023848 14 227 14.5 22.5 0.00 0.28 0.18 1 1015.0
20260506023748 14 277 12.9 22.5 0.00 0.28 0.18 1 1015.0
20260506023649 14 246 12.9 22.5 0.00 0.28 0.18 1 1014.9
20260506023547 14 246 12.9 22.5 0.00 0.28 0.18 1 1015.0
20260506023447 14 229 12.9 24.1 0.00 0.28 0.18 1 1014.9
20260506023348 14 229 12.9 24.1 0.00 0.28 0.18 1 1014.9
20260506023248 14 271 12.9 24.1 0.00 0.28 0.18 1 1015.0
20260506023148 14 251 14.5 24.1 0.00 0.28 0.18 1 1014.9
20260506023044 14 259 14.5 24.1 0.00 0.28 0.18 1 1014.9
20260506022944 14 198 14.5 24.1 0.00 0.28 0.18 1 1014.9
20260506022844 14 243 14.5 24.1 0.00 0.28 0.18 1 1014.9
20260506022744 14 225 14.5 24.1 0.00 0.28 0.18 1 1014.9
20260506022644 14 263 16.1 24.1 0.00 0.28 0.18 1 1014.9
20260506022544 14 242 16.1 24.1 0.00 0.28 0.18 1 1014.8
20260506022443 14 247 16.1 24.1 0.00 0.28 0.18 1 1014.8
20260506022344 14 253 16.1 24.1 0.00 0.28 0.18 1 1014.8
20260506022243 14 257 16.1 25.7 0.00 0.28 0.18 1 1014.8
20260506022143 14 245 16.1 25.7 0.00 0.28 0.18 1 1014.8
20260506022044 14 265 16.1 25.7 0.00 0.28 0.18 1 1014.7
20260506021944 14 271 16.1 25.7 0.00 0.28 0.18 1 1014.7
20260506021844 14 265 17.7 25.7 0.00 0.28 0.18 1 1014.7
20260506021744 14 237 16.1 25.7 0.00 0.28 0.18 1 1014.7
20260506021644 14 263 16.1 25.7 0.00 0.28 0.18 1 1014.7
20260506021544 14 244 16.1 25.7 0.00 0.28 0.18 1 1014.7
20260506021442 14 306 16.1 25.7 0.00 0.28 0.18 1 1014.7
20260506021341 14 255 16.1 25.7 0.00 0.28 0.18 1 1014.6
20260506021241 14 247 16.1 25.7 0.00 0.28 0.18 1 1014.7
20260506021151 14 213 14.5 25.7 0.00 0.28 0.18 1 1014.7
20260506021147 14 225 14.5 25.7 0.00 0.28 0.18 1 1014.6
20260506020942 14 238 14.5 25.7 0.00 0.28 0.18 1 1014.7
20260506020842 14 226 14.5 25.7 0.00 0.28 0.18 1 1014.7
20260506020742 14 223 14.5 24.1 0.00 0.28 0.18 1 1014.6
20260506020635 14 235 14.5 24.1 0.00 0.28 0.18 1 1014.7
20260506020536 14 217 16.1 25.7 0.00 0.28 0.18 1 1014.7
20260506020436 14 261 14.5 25.7 0.00 0.28 0.18 1 1014.7
20260506020336 14 202 16.1 25.7 0.00 0.28 0.18 1 1014.7
20260506020236 14 282 16.1 25.7 0.00 0.28 0.18 1 1014.7
20260506020136 14 200 16.1 25.7 0.00 0.28 0.18 1 1014.7
20260506020035 14 240 16.1 27.4 0.00 0.28 0.18 1 1014.7
20260506015944 14 227 16.1 27.4 0.00 0.28 0.18 1 1014.7
20260506015940 14 261 16.1 27.4 0.00 0.28 0.18 1 1014.7
20260506015736 14 223 16.1 27.4 0.00 0.28 0.18 1 1014.7
20260506015636 14 247 16.1 27.4 0.00 0.28 0.18 1 1014.7
20260506015541 14 224 16.1 27.4 0.00 0.28 0.18 1 1014.7
20260506015536 14 237 16.1 27.4 0.00 0.28 0.18 1 1014.7
20260506015340 14 238 16.1 27.4 0.00 0.28 0.18 1 1014.7
20260506015336 14 240 16.1 27.4 0.00 0.28 0.18 1 1014.7
20260506015132 14 245 16.1 27.4 0.00 0.28 0.18 1 1014.7
20260506015032 14 246 16.1 25.7 0.00 0.28 0.18 1 1014.8
20260506014929 14 225 16.1 25.7 0.00 0.28 0.18 1 1014.8
20260506014830 14 226 14.5 25.7 0.00 0.28 0.18 1 1014.8
20260506014730 14 279 16.1 25.7 0.00 0.28 0.18 1 1014.8
20260506014630 14 270 16.1 25.7 0.00 0.28 0.18 1 1014.7
20260506014530 14 236 16.1 25.7 0.00 0.28 0.18 1 1014.8
20260506014430 14 251 16.1 25.7 0.00 0.28 0.18 1 1014.7
20260506014330 14 236 16.1 25.7 0.00 0.28 0.18 1 1014.7
20260506014226 15 248 16.1 25.7 0.00 0.28 0.18 1 1014.8
20260506014126 15 219 16.1 24.1 0.00 0.28 0.18 1 1014.8
20260506014026 15 212 16.1 24.1 0.00 0.28 0.18 1 1014.8
20260506013925 15 222 16.1 25.7 0.00 0.28 0.18 1 1014.7
20260506013826 14 238 16.1 25.7 0.00 0.28 0.18 1 1014.7
20260506013726 14 221 16.1 25.7 0.00 0.28 0.18 1 1014.8
20260506013625 15 224 16.1 25.7 0.00 0.28 0.18 1 1014.7
20260506013526 14 231 14.5 25.7 0.00 0.28 0.18 1 1014.7
20260506013426 14 257 14.5 25.7 0.00 0.28 0.18 1 1014.8
20260506013326 14 277 14.5 25.7 0.00 0.28 0.18 1 1014.7
20260506013226 15 232 14.5 25.7 0.00 0.28 0.18 1 1014.8
20260506013126 15 234 12.9 25.7 0.00 0.28 0.18 1 1014.8
20260506013027 15 225 12.9 25.7 0.00 0.28 0.18 1 1014.8
20260506012926 15 225 12.9 22.5 0.00 0.28 0.18 1 1014.8
20260506012826 15 232 12.9 22.5 0.00 0.28 0.18 1 1014.8
20260506012726 15 237 12.9 22.5 0.00 0.28 0.18 1 1014.8
20260506012626 15 238 12.9 22.5 0.00 0.28 0.18 1 1014.8
20260506012526 15 254 14.5 22.5 0.00 0.28 0.18 1 1014.8
20260506012425 15 263 14.5 22.5 0.00 0.28 0.18 1 1014.8
20260506012322 15 255 14.5 22.5 0.00 0.28 0.18 1 1014.8
20260506012222 15 251 14.5 22.5 0.00 0.28 0.18 1 1014.7
20260506012122 15 238 14.5 24.1 0.00 0.28 0.18 1 1014.7
20260506012022 15 244 14.5 24.1 0.00 0.28 0.18 1 1014.7
20260506011922 15 229 14.5 24.1 0.00 0.28 0.18 1 1014.7
20260506011822 15 270 14.5 24.1 0.00 0.28 0.18 1 1014.7
20260506011722 15 275 14.5 24.1 0.00 0.28 0.18 1 1014.7
20260506011622 15 255 14.5 24.1 0.00 0.28 0.18 1 1014.7
20260506011530 15 234 14.5 24.1 0.00 0.28 0.18 1 1014.7
20260506011526 15 253 14.5 24.1 0.00 0.28 0.18 1 1014.7
20260506011322 15 244 14.5 24.1 0.00 0.28 0.18 1 1014.7
20260506011222 15 249 16.1 24.1 0.00 0.28 0.18 1 1014.7
20260506011121 15 219 16.1 24.1 0.00 0.28 0.18 1 1014.7
20260506011022 15 292 16.1 24.1 0.00 0.28 0.18 1 1014.7
20260506010922 15 211 16.1 24.1 0.00 0.28 0.18 1 1014.7
20260506010831 15 253 16.1 25.7 0.00 0.28 0.18 1 1014.6
20260506010826 15 269 16.1 24.1 0.00 0.28 0.18 1 1014.7
20260506010622 15 225 16.1 25.7 0.00 0.28 0.18 1 1014.6
20260506010522 15 260 16.1 25.7 0.00 0.28 0.18 1 1014.6
20260506010418 15 218 17.7 25.7 0.00 0.28 0.18 1 1014.7
20260506010317 15 261 16.1 25.7 0.00 0.28 0.18 1 1014.6
20260506010217 15 227 17.7 25.7 0.00 0.28 0.18 1 1014.7
20260506010118 15 236 16.1 25.7 0.00 0.28 0.18 1 1014.6
20260506010017 15 236 16.1 25.7 0.00 0.28 0.18 1 1014.7
20260506005917 15 260 17.7 25.7 0.00 0.28 0.18 1 1014.7
20260506005817 15 237 16.1 25.7 0.00 0.28 0.18 1 1014.7
20260506005717 15 206 16.1 25.7 0.00 0.28 0.18 1 1014.7
20260506005618 15 217 16.1 25.7 0.00 0.28 0.18 1 1014.7
20260506005518 15 223 16.1 24.1 0.00 0.28 0.18 1 1014.7
20260506005418 15 232 16.1 24.1 0.00 0.28 0.18 1 1014.6
20260506005317 15 232 16.1 25.7 0.00 0.28 0.18 1 1014.6
20260506005217 15 223 16.1 25.7 0.00 0.28 0.18 1 1014.6
20260506005117 15 292 16.1 25.7 0.00 0.28 0.18 1 1014.6
20260506005018 15 222 16.1 25.7 0.00 0.28 0.18 1 1014.7
20260506004918 15 233 16.1 25.7 0.00 0.28 0.18 1 1014.7
20260506004818 15 236 16.1 25.7 0.00 0.28 0.18 1 1014.7
20260506004718 15 229 16.1 25.7 0.00 0.28 0.18 1 1014.6
20260506004617 15 205 16.1 25.7 0.00 0.28 0.18 1 1014.6
20260506004521 15 251 16.1 24.1 0.00 0.28 0.18 1 1014.6
20260506004516 15 231 16.1 25.7 0.00 0.28 0.18 1 1014.6
20260506004312 15 225 16.1 25.7 0.00 0.28 0.18 1 1014.5
20260506004212 15 219 16.1 25.7 0.00 0.28 0.18 1 1014.5
20260506004111 15 230 16.1 25.7 0.00 0.28 0.18 1 1014.5
20260506004010 15 238 16.1 27.4 0.00 0.28 0.18 1 1014.5
20260506003910 15 217 17.7 27.4 0.00 0.28 0.18 1 1014.5
20260506003810 15 211 17.7 27.4 0.00 0.28 0.18 1 1014.5
20260506003709 15 220 17.7 27.4 0.00 0.28 0.18 1 1014.5
20260506003609 15 227 17.7 27.4 0.00 0.28 0.18 1 1014.4
20260506003510 15 241 17.7 27.4 0.00 0.28 0.18 1 1014.5
20260506003408 15 244 17.7 27.4 0.00 0.28 0.18 1 1014.4
20260506003316 15 232 17.7 27.4 0.00 0.28 0.18 1 1014.4
20260506003312 15 255 17.7 27.4 0.00 0.28 0.18 1 1014.5
20260506003107 15 254 17.7 27.4 0.00 0.28 0.18 1 1014.4
20260506003007 15 261 17.7 25.7 0.00 0.28 0.18 1 1014.4
20260506002907 15 240 17.7 30.6 0.00 0.28 0.18 1 1014.4
20260506002807 15 229 17.7 30.6 0.00 0.28 0.18 1 1014.4
20260506002707 15 234 17.7 30.6 0.00 0.28 0.18 1 1014.4
20260506002607 15 211 19.3 30.6 0.00 0.28 0.18 1 1014.4
20260506002507 15 309 17.7 30.6 0.00 0.28 0.18 1 1014.4
20260506002407 15 241 19.3 30.6 0.00 0.28 0.18 1 1014.4
20260506002300 15 238 19.3 30.6 0.00 0.28 0.18 1 1014.4
20260506002159 15 241 17.7 30.6 0.00 0.28 0.18 1 1014.4
20260506002100 15 244 19.3 30.6 0.00 0.28 0.18 1 1014.4
20260506002000 15 232 19.3 30.6 0.00 0.28 0.18 1 1014.4
20260506001859 15 221 19.3 30.6 0.00 0.28 0.18 1 1014.4
20260506001755 15 244 19.3 30.6 0.00 0.28 0.18 1 1014.3
20260506001654 15 252 17.7 29.0 0.00 0.28 0.18 1 1014.4
20260506001554 15 205 19.3 29.0 0.00 0.28 0.18 1 1014.3
20260506001453 15 250 19.3 29.0 0.00 0.28 0.18 1 1014.3
20260506001353 15 254 17.7 29.0 0.00 0.28 0.18 1 1014.3
20260506001246 15 250 17.7 29.0 0.00 0.28 0.18 1 1014.3
20260506001146 15 245 17.7 29.0 0.00 0.28 0.18 1 1014.3
20260506001054 15 254 17.7 27.4 0.00 0.28 0.18 1 1014.3
20260506001050 15 249 17.7 27.4 0.00 0.28 0.18 1 1014.3
20260506000845 15 261 17.7 25.7 0.00 0.28 0.18 1 1014.4
20260506000744 15 214 17.7 27.4 0.00 0.28 0.18 1 1014.4
20260506000644 15 252 17.7 27.4 0.00 0.28 0.18 1 1014.4
20260506000542 15 240 17.7 27.4 0.00 0.28 0.18 1 1014.4
20260506000441 15 238 17.7 27.4 0.00 0.28 0.18 1 1014.4
20260506000341 15 247 17.7 27.4 0.00 0.28 0.18 1 1014.4
20260506000241 15 273 16.1 27.4 0.00 0.28 0.18 1 1014.4
20260506000141 15 295 16.1 27.4 0.00 0.28 0.18 1 1014.4
20260506000040 15 277 16.1 27.4 0.00 0.28 0.18 1 1014.4
20260505235940 15 215 16.1 27.4 0.00 0.28 0.18 1 1014.4
20260505235840 15 242 14.5 27.4 0.00 0.28 0.18 1 1014.4
20260505235738 15 238 14.5 27.4 0.00 0.28 0.18 1 1014.4
20260505235637 15 233 14.5 27.4 0.00 0.28 0.18 1 1014.4
20260505235538 15 222 14.5 22.5 0.00 0.28 0.18 1 1014.4
20260505235438 15 271 14.5 25.7 0.00 0.28 0.18 1 1014.4
20260505235337 15 293 12.9 25.7 0.00 0.28 0.18 1 1014.4
20260505235237 15 217 12.9 25.7 0.00 0.28 0.18 1 1014.4
20260505235145 15 265 14.5 25.7 0.00 0.28 0.18 1 1014.4
20260505235036 15 238 14.5 25.7 0.00 0.28 0.18 1 1014.4
20260505234832 15 234 14.5 25.7 0.00 0.28 0.18 1 1014.4
20260505234732 15 231 14.5 25.7 0.00 0.28 0.18 1 1014.4
20260505234631 15 272 14.5 25.7 0.00 0.28 0.18 1 1014.4
20260505234533 15 237 14.5 25.7 0.00 0.28 0.18 1 1014.4
20260505234529 15 234 14.5 25.7 0.00 0.28 0.18 1 1014.4
20260505234326 15 234 14.5 25.7 0.00 0.28 0.18 1 1014.5
20260505234226 15 227 14.5 25.7 0.00 0.28 0.18 1 1014.4
20260505234124 15 246 14.5 25.7 0.00 0.28 0.18 1 1014.5
20260505234028 15 236 12.9 25.7 0.00 0.28 0.18 1 1014.4
20260505234023 15 227 12.9 25.7 0.00 0.28 0.18 1 1014.4
20260505233820 15 277 14.5 24.1 0.00 0.28 0.18 1 1014.5
20260505233720 15 233 14.5 24.1 0.00 0.28 0.18 1 1014.5
20260505233619 15 234 16.1 24.1 0.00 0.28 0.18 1 1014.5
20260505233522 15 240 16.1 24.1 0.00 0.28 0.18 1 1014.5
20260505233517 15 246 16.1 24.1 0.00 0.28 0.18 1 1014.5
20260505233314 15 259 16.1 24.1 0.00 0.28 0.18 1 1014.5
20260505233214 15 281 16.1 24.1 0.00 0.28 0.18 1 1014.5
20260505233112 15 225 17.7 24.1 0.00 0.28 0.18 1 1014.5
20260505233015 15 248 17.7 25.7 0.00 0.28 0.18 1 1014.5
20260505233011 15 221 17.7 25.7 0.00 0.28 0.18 1 1014.5
20260505232807 15 249 17.7 25.7 0.00 0.28 0.18 1 1014.5
20260505232708 15 224 16.1 25.7 0.00 0.28 0.18 1 1014.6
20260505232607 15 232 17.7 27.4 0.00 0.28 0.18 1 1014.5
20260505232501 15 227 17.7 27.4 0.00 0.28 0.18 1 1014.5
20260505232401 15 296 17.7 29.0 0.00 0.28 0.18 1 1014.6
20260505232301 15 218 19.3 30.6 0.00 0.28 0.18 1 1014.6
20260505232201 15 252 19.3 30.6 0.00 0.28 0.18 1 1014.6
20260505232114 15 253 17.7 30.6 0.00 0.28 0.18 1 1014.6
20260505232110 15 233 17.7 30.6 0.00 0.28 0.18 1 1014.6
20260505232106 15 262 17.7 30.6 0.00 0.28 0.18 1 1014.6
20260505231757 15 207 17.7 30.6 0.00 0.28 0.18 1 1014.6
20260505231656 15 217 17.7 30.6 0.00 0.28 0.18 1 1014.6
20260505231556 15 241 17.7 30.6 0.00 0.28 0.18 1 1014.6
20260505231452 15 231 17.7 30.6 0.00 0.28 0.18 1 1014.6
20260505231352 15 226 17.7 25.7 0.00 0.28 0.18 1 1014.6
20260505231249 15 262 17.7 25.7 0.00 0.28 0.18 1 1014.6
20260505231149 15 246 17.7 29.0 0.00 0.28 0.18 1 1014.6
20260505231049 15 211 17.7 29.0 0.00 0.28 0.18 1 1014.5
20260505230948 15 221 17.7 29.0 0.00 0.28 0.18 1 1014.5
20260505230848 15 246 17.7 29.0 0.00 0.28 0.18 1 1014.6
20260505230747 15 250 17.7 29.0 0.00 0.28 0.18 1 1014.5
20260505230647 15 229 17.7 29.0 0.00 0.28 0.18 1 1014.5
20260505230547 15 221 17.7 29.0 0.00 0.28 0.18 1 1014.5
20260505230447 15 259 17.7 29.0 0.00 0.28 0.18 1 1014.5
20260505230347 15 242 17.7 29.0 0.00 0.28 0.18 1 1014.4
20260505230247 15 257 17.7 29.0 0.00 0.28 0.18 1 1014.5
20260505230147 15 219 16.1 27.4 0.00 0.28 0.18 1 1014.5
20260505230048 15 236 16.1 24.1 0.00 0.28 0.18 1 1014.6
20260505225945 15 251 16.1 24.1 0.00 0.28 0.18 1 1014.5
20260505225845 15 255 17.7 24.1 0.00 0.28 0.18 3 1014.5
20260505225745 15 242 17.7 24.1 0.00 0.28 0.18 1 1014.5
20260505225654 15 240 16.1 24.1 0.00 0.28 0.18 6 1014.6
20260505225649 15 229 16.1 24.1 0.00 0.28 0.18 6 1014.5
20260505225445 15 245 14.5 24.1 0.00 0.28 0.18 1 1014.6
20260505225345 15 281 14.5 24.1 0.00 0.28 0.18 2 1014.5
20260505225239 15 269 16.1 24.1 0.00 0.28 0.18 3 1014.5
20260505225139 15 215 16.1 24.1 0.00 0.28 0.18 3 1014.4
20260505225040 15 244 16.1 24.1 0.00 0.28 0.18 1 1014.5
20260505224940 15 252 14.5 27.4 0.00 0.28 0.18 1 1014.5
20260505224838 15 279 14.5 27.4 0.00 0.28 0.18 1 1014.5
20260505224733 15 250 16.1 27.4 0.00 0.28 0.18 1 1014.5
20260505224646 15 239 16.1 27.4 0.00 0.28 0.18 1 1014.5
20260505224537 15 248 17.7 27.4 0.00 0.28 0.18 1 1014.5
20260505224334 15 226 17.7 27.4 0.00 0.28 0.18 1 1014.5
20260505224227 15 229 17.7 27.4 0.00 0.28 0.18 1 1014.5
20260505224127 15 221 17.7 27.4 0.00 0.28 0.18 1 1014.5
20260505224027 15 209 17.7 27.4 0.00 0.28 0.18 1 1014.5
20260505223927 15 250 17.7 27.4 0.00 0.28 0.18 1 1014.5
20260505223827 15 243 17.7 27.4 0.00 0.28 0.18 1 1014.5
20260505223721 15 285 17.7 27.4 0.00 0.28 0.18 1 1014.4
20260505223621 15 229 16.1 27.4 0.00 0.28 0.18 1 1014.5
20260505223521 15 223 16.1 27.4 0.00 0.28 0.18 1 1014.5
20260505223422 15 234 16.1 27.4 0.00 0.28 0.18 1 1014.4
20260505223321 15 252 16.1 24.1 0.00 0.28 0.18 1 1014.5
20260505223215 15 213 16.1 24.1 0.00 0.28 0.18 1 1014.5
20260505223116 15 248 16.1 24.1 0.00 0.28 0.18 1 1014.5
20260505223023 15 234 14.5 24.1 0.00 0.28 0.18 1 1014.6
20260505223019 15 197 14.5 24.1 0.00 0.28 0.18 1 1014.5
20260505222815 15 252 16.1 24.1 0.00 0.28 0.18 1 1014.6
20260505222709 15 226 16.1 24.1 0.00 0.28 0.18 1 1014.6
20260505222609 15 225 16.1 24.1 0.00 0.28 0.18 1 1014.6
20260505222509 15 225 14.5 24.1 0.00 0.28 0.18 1 1014.6
20260505222409 15 236 14.5 24.1 0.00 0.28 0.18 1 1014.7
20260505222309 15 257 14.5 24.1 0.00 0.28 0.18 1 1014.7
20260505222203 15 252 12.9 22.5 0.00 0.28 0.18 1 1014.7
20260505222103 15 227 12.9 22.5 0.00 0.28 0.18 1 1014.7
20260505222003 15 221 14.5 22.5 0.00 0.28 0.18 1 1014.7
20260505221903 15 280 14.5 22.5 0.00 0.28 0.18 1 1014.7
20260505221803 15 264 14.5 22.5 0.00 0.28 0.18 1 1014.7
20260505221706 15 232 14.5 25.7 0.00 0.28 0.18 1 1014.7
20260505221702 15 250 14.5 25.7 0.00 0.28 0.18 1 1014.7
20260505221457 15 311 16.1 29.0 0.00 0.28 0.18 1 1014.7
20260505221357 15 221 16.1 29.0 0.00 0.28 0.18 1 1014.7
20260505221257 15 224 16.1 29.0 0.00 0.28 0.18 1 1014.7
20260505221151 15 221 16.1 29.0 0.00 0.28 0.18 1 1014.7
20260505221100 15 229 16.1 29.0 0.00 0.28 0.18 1 1014.7
20260505221055 15 252 16.1 29.0 0.00 0.28 0.18 1 1014.7
20260505220851 15 271 16.1 29.0 0.00 0.28 0.18 1 1014.7
20260505220754 15 239 16.1 29.0 0.00 0.28 0.18 1 1014.8
20260505220750 15 238 16.1 29.0 0.00 0.28 0.18 1 1014.7
20260505220546 15 249 16.1 29.0 0.00 0.28 0.18 1 1014.7
20260505220445 15 256 16.1 24.1 0.00 0.28 0.18 1 1014.7
20260505220345 15 218 14.5 24.1 0.00 0.28 0.18 1 1014.7
20260505220245 15 273 14.5 24.1 0.00 0.28 0.18 1 1014.8
20260505220140 15 246 14.5 22.5 0.00 0.28 0.18 1 1014.7
20260505220039 15 248 14.5 22.5 0.00 0.28 0.18 1 1014.7
20260505215939 15 244 14.5 24.1 0.00 0.28 0.18 1 1014.7
20260505215839 15 278 14.5 24.1 0.00 0.28 0.18 1 1014.7
20260505215739 15 235 14.5 24.1 0.00 0.28 0.18 1 1014.7
20260505215636 15 264 14.5 24.1 0.00 0.28 0.18 1 1014.8
20260505215536 15 253 14.5 24.1 0.00 0.28 0.18 1 1014.7
20260505215435 15 252 14.5 24.1 0.00 0.28 0.18 1 1014.8
20260505215335 15 236 14.5 24.1 0.00 0.28 0.18 1 1014.7
20260505215233 15 251 14.5 24.1 0.00 0.28 0.18 1 1014.7
20260505215128 15 283 16.1 24.1 0.00 0.28 0.18 1 1014.7
20260505215027 15 259 14.5 24.1 0.00 0.28 0.18 1 1014.8
20260505214927 15 227 14.5 24.1 0.00 0.28 0.18 1 1014.8
20260505214827 15 275 16.1 25.7 0.00 0.28 0.18 1 1014.8
20260505214727 15 271 16.1 25.7 0.00 0.28 0.18 1 1014.8
20260505214630 15 222 16.1 25.7 0.00 0.28 0.18 1 1014.8
20260505214626 15 226 16.1 25.7 0.00 0.28 0.18 1 1014.8
20260505214421 15 226 16.1 25.7 0.00 0.28 0.18 1 1014.8
20260505214321 15 240 14.5 25.7 0.00 0.28 0.18 1 1014.8
20260505214221 15 222 16.1 25.7 0.00 0.28 0.18 1 1014.9
20260505214115 15 264 16.1 25.7 0.00 0.28 0.18 1 1014.8
20260505214015 15 0 16.1 25.7 0.00 0.28 0.18 1 1014.8
20260505213915 15 242 16.1 30.6 0.00 0.28 0.18 1 1014.9
20260505213815 15 219 16.1 30.6 0.00 0.28 0.18 1 1014.8
20260505213715 15 238 16.1 30.6 0.00 0.28 0.18 1 1014.8
20260505213618 15 281 17.7 30.6 0.00 0.28 0.18 1 1014.9
20260505213613 15 279 17.7 30.6 0.00 0.28 0.18 1 1014.8
20260505213409 15 263 17.7 30.6 0.00 0.28 0.18 1 1014.9
20260505213316 15 230 17.7 30.6 0.00 0.28 0.18 1 1014.8
20260505213312 15 240 16.1 30.6 0.00 0.28 0.18 1 1014.9
20260505213003 15 221 16.1 27.4 0.00 0.28 0.18 1 1014.9
20260505212903 15 236 16.1 27.4 0.00 0.28 0.18 1 1014.9
20260505212803 15 233 16.1 27.4 0.00 0.28 0.18 1 1014.9
20260505212703 15 245 16.1 27.4 0.00 0.28 0.18 1 1014.9
20260505212557 15 282 16.1 27.4 0.00 0.28 0.18 1 1014.9
20260505212457 15 241 14.5 27.4 0.00 0.28 0.18 1 1014.9
20260505212357 15 257 16.1 27.4 0.00 0.28 0.18 1 1014.9
20260505212257 15 246 16.1 27.4 0.00 0.28 0.18 1 1014.9
20260505212157 15 240 16.1 27.4 0.00 0.28 0.18 1 1014.9
20260505212051 15 277 16.1 27.4 0.00 0.28 0.18 1 1014.9
20260505211959 15 215 16.1 27.4 0.00 0.28 0.18 1 1014.9
20260505211955 15 259 16.1 27.4 0.00 0.28 0.18 1 1014.9
20260505211751 15 290 16.1 25.7 0.00 0.28 0.18 1 1014.9
20260505211654 15 284 16.1 25.7 0.00 0.28 0.18 1 1014.9
20260505211650 15 261 16.1 25.7 0.00 0.28 0.18 1 1014.9
20260505211446 15 233 16.1 25.7 0.00 0.28 0.18 1 1015.0
20260505211346 15 242 16.1 25.7 0.00 0.28 0.18 1 1014.9
20260505211245 15 295 16.1 25.7 0.00 0.28 0.18 1 1014.9
20260505211145 15 275 16.1 25.7 0.00 0.28 0.18 1 1014.9
20260505211048 15 245 16.1 25.7 0.00 0.28 0.18 1 1014.9
20260505211044 15 261 16.1 25.7 0.00 0.28 0.18 1 1015.0
20260505210839 15 265 16.1 25.7 0.00 0.28 0.18 1 1014.9
20260505210740 15 155 16.1 25.7 0.00 0.28 0.18 1 1015.0
20260505210642 15 275 16.1 25.7 0.00 0.28 0.18 1 1014.9
20260505210637 15 265 16.1 25.7 0.00 0.28 0.18 1 1014.9
20260505210433 15 294 16.1 27.4 0.00 0.28 0.18 1 1014.9
20260505210333 15 290 16.1 27.4 0.00 0.28 0.18 1 1015.0
20260505210233 15 254 16.1 27.4 0.00 0.28 0.18 1 1014.9
20260505210133 15 271 14.5 27.4 0.00 0.28 0.18 1 1014.9
20260505210027 15 242 16.1 27.4 0.00 0.28 0.18 1 1015.0
20260505205927 15 0 16.1 27.4 0.00 0.28 0.18 4 1014.9
20260505205827 15 313 14.5 27.4 0.00 0.28 0.18 2 1014.9
20260505205727 15 223 14.5 27.4 0.00 0.28 0.18 2 1014.9
20260505205627 15 243 14.5 27.4 0.00 0.28 0.18 8 1014.9
20260505205524 16 245 14.5 27.4 0.00 0.28 0.18 7 1014.9
20260505205423 16 248 14.5 25.7 0.00 0.28 0.18 5 1014.9
20260505205323 16 279 14.5 25.7 0.00 0.28 0.18 5 1014.8
20260505205229 15 277 14.5 25.7 0.00 0.28 0.18 10 1014.9
20260505205225 15 228 14.5 25.7 0.00 0.28 0.18 7 1014.9
20260505205015 15 220 14.5 24.1 0.00 0.28 0.18 14 1014.9
20260505204915 16 250 14.5 24.1 0.00 0.28 0.18 10 1014.9
20260505204823 15 263 14.5 24.1 0.00 0.28 0.18 11 1015.0
20260505204819 16 207 14.5 24.1 0.00 0.28 0.18 9 1014.9
20260505204615 15 341 16.1 24.1 0.00 0.28 0.18 14 1014.9
20260505204509 16 282 16.1 24.1 0.00 0.28 0.18 11 1014.9
20260505204409 16 281 14.5 27.4 0.00 0.28 0.18 3 1014.9
20260505204309 15 257 14.5 27.4 0.00 0.28 0.18 1 1014.8
20260505204210 15 275 14.5 27.4 0.00 0.28 0.18 2 1014.8
20260505204108 15 228 16.1 27.4 0.00 0.28 0.18 2 1014.8
20260505204003 15 256 16.1 27.4 0.00 0.28 0.18 3 1014.7
20260505203903 15 225 16.1 27.4 0.00 0.28 0.18 1 1014.8
20260505203804 15 206 16.1 27.4 0.00 0.28 0.18 7 1014.7
20260505203712 15 265 16.1 27.4 0.00 0.28 0.18 4 1014.8
20260505203708 15 257 16.1 27.4 0.00 0.28 0.18 8 1014.8
20260505203457 15 240 16.1 27.4 0.00 0.28 0.18 1 1014.8
20260505203358 15 227 14.5 27.4 0.00 0.28 0.18 1 1014.9
20260505203257 15 271 14.5 27.4 0.00 0.28 0.18 1 1014.9
20260505203157 15 266 14.5 27.4 0.00 0.28 0.18 1 1014.8
20260505203100 15 266 14.5 27.4 0.00 0.28 0.18 1 1014.8
20260505203056 15 254 14.5 27.4 0.00 0.28 0.18 1 1014.8
20260505202852 15 265 16.1 27.4 0.00 0.28 0.18 8 1014.8
20260505202751 15 225 14.5 27.4 0.03 0.28 0.18 8 1014.9
20260505202651 15 276 14.5 27.4 0.03 0.28 0.18 7 1014.8
20260505202551 15 284 14.5 25.7 0.03 0.28 0.18 2 1014.8
20260505202445 15 244 14.5 25.7 0.03 0.28 0.18 3 1014.9
20260505202345 15 327 16.1 25.7 0.03 0.28 0.18 5 1014.8
20260505202245 15 271 16.1 25.7 0.03 0.28 0.18 6 1014.8
20260505202145 15 248 16.1 25.7 0.03 0.28 0.18 6 1014.8
20260505202045 15 239 16.1 25.7 0.03 0.28 0.18 3 1014.8
20260505201939 15 295 16.1 25.7 0.03 0.28 0.18 5 1014.8
20260505201847 15 235 17.7 25.7 0.03 0.28 0.18 1 1014.8
20260505201844 15 280 16.1 25.7 0.03 0.28 0.18 1 1014.8
20260505201639 15 219 16.1 25.7 0.03 0.28 0.18 1 1014.8
20260505201538 15 192 17.7 25.7 0.03 0.28 0.18 1 1014.9
20260505201433 15 276 17.7 25.7 0.03 0.28 0.18 1 1014.8
20260505201333 15 230 17.7 25.7 0.03 0.28 0.18 1 1014.9
20260505201233 15 291 17.7 25.7 0.03 0.28 0.18 1 1014.9
20260505201133 15 271 17.7 25.7 0.03 0.28 0.18 1 1014.8
20260505201033 15 238 17.7 25.7 0.03 0.28 0.18 1 1014.9
20260505200927 15 294 17.7 27.4 0.03 0.28 0.18 1 1014.9
20260505200826 15 265 17.7 27.4 0.03 0.28 0.18 1 1014.9
20260505200726 15 263 17.7 27.4 0.03 0.28 0.18 1 1014.8
20260505200628 15 236 16.1 27.4 0.03 0.28 0.18 1 1014.9
20260505200527 15 232 16.1 27.4 0.03 0.28 0.18 1 1014.9
20260505200421 15 264 16.1 27.4 0.03 0.28 0.18 1 1014.8
20260505200320 15 261 16.1 27.4 0.03 0.28 0.18 1 1014.9
20260505200230 15 227 14.5 27.4 0.03 0.28 0.18 1 1014.9
20260505200226 15 252 14.5 27.4 0.03 0.28 0.18 1 1014.8
20260505200021 15 263 14.5 27.4 0.03 0.28 0.18 1 1014.9
20260505195915 15 226 14.5 22.5 0.03 0.28 0.18 1 1014.9
20260505195815 15 234 14.5 24.1 0.03 0.28 0.18 1 1014.9
20260505195714 15 265 14.5 24.1 0.03 0.28 0.18 1 1014.9
20260505195615 15 286 14.5 24.1 0.03 0.28 0.18 1 1014.9
20260505195515 15 288 14.5 24.1 0.03 0.28 0.18 1 1014.9
20260505195415 15 281 14.5 24.1 0.03 0.28 0.18 1 1015.0
20260505195315 15 272 14.5 24.1 0.03 0.28 0.18 1 1015.0
20260505195215 15 257 14.5 24.1 0.03 0.28 0.18 1 1015.0
20260505195123 15 265 14.5 24.1 0.03 0.28 0.18 1 1015.0
20260505195119 15 288 14.5 24.1 0.03 0.28 0.18 1 1015.0
20260505194915 15 258 12.9 24.1 0.03 0.28 0.18 1 1015.0
20260505194828 15 269 12.9 22.5 0.03 0.28 0.18 1 1015.0
20260505194719 15 247 12.9 22.5 0.03 0.28 0.18 1 1015.0
20260505194515 15 241 12.9 22.5 0.03 0.28 0.18 1 1015.0
20260505194415 15 333 12.9 22.5 0.03 0.28 0.18 1 1015.0
20260505194315 15 234 12.9 22.5 0.03 0.28 0.18 1 1015.0
20260505194209 15 238 12.9 22.5 0.03 0.28 0.18 1 1015.0
20260505194108 15 213 12.9 22.5 0.03 0.28 0.18 1 1015.0
20260505194008 15 191 14.5 22.5 0.03 0.28 0.18 1 1015.0
20260505193909 15 0 14.5 22.5 0.03 0.28 0.18 1 1015.1
20260505193808 15 264 14.5 25.7 0.03 0.28 0.18 1 1015.0
20260505193703 15 226 14.5 25.7 0.03 0.28 0.18 1 1015.0
20260505193603 15 239 14.5 25.7 0.03 0.28 0.18 1 1015.0
20260505193502 15 300 14.5 25.7 0.03 0.28 0.18 1 1015.1
20260505193402 15 271 14.5 25.7 0.03 0.28 0.18 1 1015.0
20260505193302 15 286 14.5 25.7 0.03 0.28 0.18 1 1015.0
20260505193159 15 246 14.5 25.7 0.03 0.28 0.18 1 1015.0
20260505193059 15 261 12.9 25.7 0.03 0.28 0.18 1 1015.0
20260505192959 15 242 14.5 25.7 0.03 0.28 0.18 1 1015.0
20260505192859 15 242 14.5 25.7 0.03 0.28 0.18 1 1015.1
20260505192801 15 265 12.9 24.1 0.00 0.25 0.15 1 1015.1
20260505192757 15 250 12.9 24.1 0.00 0.25 0.18 1 1015.1
20260505192553 15 221 12.9 24.1 0.00 0.25 0.15 1 1015.0
20260505192452 15 196 12.9 24.1 0.00 0.25 0.15 1 1015.0
20260505192354 15 306 12.9 24.1 0.00 0.25 0.15 1 1015.0
20260505192253 15 283 12.9 24.1 0.00 0.25 0.15 1 1015.1
20260505192153 15 250 12.9 24.1 0.00 0.25 0.15 1 1015.0
20260505192053 15 306 14.5 24.1 0.00 0.25 0.15 1 1015.0
20260505191952 15 300 12.9 24.1 0.00 0.25 0.15 1 1015.0
20260505191853 15 262 12.9 20.9 0.00 0.25 0.15 1 1015.0
20260505191753 15 294 12.9 20.9 0.00 0.25 0.15 1 1015.0
20260505191653 15 277 12.9 20.9 0.00 0.25 0.15 1 1015.0
20260505191553 15 292 11.3 19.3 0.00 0.25 0.15 1 1015.0
20260505191510 15 275 12.9 22.5 0.00 0.25 0.15 1 1015.0
20260505191505 15 263 12.9 24.1 0.00 0.25 0.15 1 1015.1
20260505191501 15 276 12.9 22.5 0.00 0.25 0.15 1 1015.0
20260505191153 15 236 12.9 24.1 0.00 0.25 0.15 1 1015.0
20260505191053 15 257 12.9 24.1 0.00 0.25 0.15 1 1015.0
20260505190953 15 231 12.9 24.1 0.00 0.25 0.15 1 1014.9
20260505190853 14 308 12.9 24.1 0.00 0.25 0.15 1 1014.9
20260505190753 14 238 12.9 24.1 0.00 0.25 0.15 1 1014.9
20260505190653 14 274 12.9 24.1 0.00 0.25 0.15 1 1014.9
20260505190553 14 266 12.9 24.1 0.00 0.25 0.15 1 1014.9
20260505190453 14 249 12.9 24.1 0.00 0.25 0.15 1 1014.9
20260505190357 14 246 12.9 24.1 0.00 0.25 0.15 1 1014.8
20260505190246 14 265 12.9 22.5 0.00 0.25 0.15 1 1014.8
20260505190146 14 278 12.9 22.5 0.00 0.25 0.15 1 1014.8
20260505190056 14 273 12.9 20.9 0.00 0.25 0.15 1 1014.8
20260505190052 14 237 12.9 19.3 0.00 0.25 0.15 1 1014.8
20260505185846 14 300 12.9 22.5 0.00 0.25 0.15 1 1014.8
20260505185745 14 260 14.5 22.5 0.00 0.25 0.15 1 1014.8
20260505185645 14 311 14.5 22.5 0.00 0.25 0.15 1 1014.8
20260505185545 14 242 14.5 22.5 0.00 0.25 0.15 1 1014.8
20260505185443 14 281 14.5 22.5 0.00 0.25 0.15 1 1014.8
20260505185351 14 283 14.5 22.5 0.00 0.25 0.15 1 1014.8
20260505185347 14 267 14.5 22.5 0.00 0.25 0.15 1 1014.8
20260505185143 14 277 14.5 22.5 0.00 0.25 0.15 1 1014.8
20260505185043 14 267 14.5 22.5 0.00 0.25 0.15 1 1014.8
20260505184941 14 254 14.5 22.5 0.00 0.25 0.15 1 1014.8
20260505184849 14 221 14.5 22.5 0.00 0.25 0.15 1 1014.7
20260505184845 14 231 14.5 22.5 0.00 0.25 0.15 1 1014.8
20260505184641 14 254 12.9 22.5 0.00 0.25 0.15 1 1014.8
20260505184541 14 272 12.9 22.5 0.00 0.25 0.15 1 1014.7
20260505184441 14 279 12.9 22.5 0.00 0.25 0.15 1 1014.8
20260505184341 14 269 12.9 22.5 0.00 0.25 0.15 1 1014.7
20260505184241 14 227 12.9 22.5 0.00 0.25 0.15 1 1014.8
20260505184156 14 283 12.9 20.9 0.00 0.25 0.15 1 1014.8
20260505184152 14 253 12.9 22.5 0.00 0.25 0.15 1 1014.8
20260505184147 14 292 12.9 22.5 0.00 0.25 0.15 1 1014.8
20260505183839 14 259 14.5 22.5 0.00 0.25 0.15 1 1014.9
20260505183739 14 265 14.5 22.5 0.00 0.25 0.15 1 1014.9
20260505183639 14 228 14.5 22.5 0.00 0.25 0.15 1 1014.9
20260505183538 14 253 14.5 22.5 0.00 0.25 0.15 1 1014.9
20260505183439 14 243 14.5 22.5 0.00 0.25 0.15 1 1014.9
20260505183339 13 238 14.5 22.5 0.00 0.25 0.15 1 1014.9
20260505183239 14 279 14.5 22.5 0.00 0.25 0.15 1 1014.9
20260505183139 13 283 14.5 22.5 0.00 0.25 0.15 1 1014.9
20260505183039 14 281 12.9 22.5 0.00 0.25 0.15 1 1014.9
20260505182939 14 278 12.9 22.5 0.00 0.25 0.15 1 1014.9
20260505182839 14 252 12.9 22.5 0.00 0.25 0.15 1 1015.0
20260505182743 14 268 12.9 22.5 0.00 0.25 0.15 1 1015.0
20260505182739 14 274 12.9 22.5 0.00 0.25 0.15 1 1015.0
20260505182534 14 286 12.9 24.1 0.00 0.25 0.15 1 1015.0
20260505182435 14 254 12.9 24.1 0.00 0.25 0.15 1 1015.0
20260505182335 14 282 12.9 24.1 0.00 0.25 0.15 1 1015.0
20260505182235 14 275 12.9 24.1 0.00 0.25 0.15 1 1015.0
20260505182135 14 275 12.9 24.1 0.00 0.25 0.15 1 1015.0
20260505182034 14 309 12.9 24.1 0.00 0.25 0.15 1 1014.9
20260505181935 14 265 12.9 24.1 0.00 0.25 0.15 1 1014.9
20260505181835 14 290 14.5 25.7 0.00 0.25 0.15 1 1014.9
20260505181735 14 269 14.5 25.7 0.00 0.25 0.15 1 1014.9
20260505181635 14 257 14.5 25.7 0.00 0.25 0.15 1 1014.9
20260505181534 14 279 14.5 25.7 0.00 0.25 0.15 1 1014.9
20260505181435 14 264 14.5 25.7 0.00 0.25 0.15 1 1014.9
20260505181335 14 281 14.5 25.7 0.00 0.25 0.15 1 1014.8
20260505181235 14 281 14.5 25.7 0.00 0.25 0.15 1 1014.9
20260505181135 14 280 14.5 25.7 0.00 0.25 0.15 1 1014.8
20260505181034 14 259 14.5 25.7 0.00 0.25 0.15 1 1014.8
20260505180934 14 287 14.5 25.7 0.00 0.25 0.15 1 1014.8
20260505180835 14 288 14.5 25.7 0.00 0.25 0.15 1 1014.8
20260505180732 14 265 14.5 25.7 0.00 0.25 0.15 1 1014.7
20260505180631 14 307 14.5 25.7 0.00 0.25 0.15 1 1014.7
20260505180531 14 271 12.9 24.1 0.00 0.25 0.15 1 1014.7
20260505180431 14 292 12.9 24.1 0.00 0.25 0.15 1 1014.6
20260505180331 14 302 12.9 24.1 0.00 0.25 0.15 1 1014.6
20260505180230 13 292 14.5 24.1 0.00 0.25 0.15 1 1014.6
20260505180131 13 299 14.5 24.1 0.00 0.25 0.15 1 1014.6
20260505180031 13 10 14.5 24.1 0.00 0.25 0.15 1 1014.6
20260505175931 13 277 14.5 24.1 0.00 0.25 0.15 1 1014.6
20260505175831 13 275 14.5 24.1 0.00 0.25 0.15 1 1014.5
20260505175732 13 288 14.5 24.1 0.00 0.25 0.15 1 1014.6
20260505175631 13 238 14.5 24.1 0.00 0.25 0.15 1 1014.6
20260505175531 13 246 14.5 22.5 0.00 0.25 0.15 1 1014.5
20260505175431 13 288 14.5 22.5 0.00 0.25 0.15 1 1014.4
20260505175331 13 286 14.5 22.5 0.00 0.25 0.15 1 1014.5
20260505175230 13 298 12.9 22.5 0.00 0.25 0.15 1 1014.4
20260505175130 13 284 12.9 22.5 0.00 0.25 0.15 1 1014.4
20260505175031 13 283 12.9 22.5 0.00 0.25 0.15 1 1014.4
20260505174931 13 296 12.9 22.5 0.00 0.25 0.15 1 1014.4
20260505174824 13 307 12.9 22.5 0.00 0.25 0.15 1 1014.5
20260505174725 13 279 12.9 22.5 0.00 0.25 0.15 1 1014.5
20260505174625 13 267 12.9 22.5 0.00 0.25 0.15 1 1014.5
20260505174525 13 279 11.3 20.9 0.00 0.25 0.15 1 1014.5
20260505174425 13 257 11.3 20.9 0.00 0.25 0.15 1 1014.5
20260505174324 13 278 12.9 20.9 0.00 0.25 0.15 1 1014.5
20260505174224 13 275 12.9 22.5 0.00 0.25 0.15 1 1014.5
20260505174125 13 284 12.9 22.5 0.00 0.25 0.15 1 1014.5
20260505174025 13 278 12.9 22.5 0.00 0.25 0.15 1 1014.5
20260505173924 13 300 12.9 22.5 0.00 0.25 0.15 1 1014.4
20260505173825 13 280 12.9 22.5 0.00 0.25 0.15 1 1014.5
20260505173724 13 284 12.9 22.5 0.00 0.25 0.15 1 1014.5
20260505173619 13 274 12.9 22.5 0.00 0.25 0.15 1 1014.6
20260505173519 13 265 12.9 22.5 0.00 0.25 0.15 1 1014.6
20260505173419 13 274 12.9 22.5 0.00 0.25 0.15 1 1014.6
20260505173318 13 278 12.9 22.5 0.00 0.25 0.15 1 1014.6
20260505173217 13 290 12.9 22.5 0.00 0.25 0.15 1 1014.5
20260505173113 13 313 12.9 24.1 0.00 0.25 0.15 1 1014.5
20260505173010 13 247 14.5 24.1 0.00 0.25 0.15 1 1014.5
20260505172910 13 294 14.5 24.1 0.00 0.25 0.15 1 1014.5
20260505172810 13 271 14.5 24.1 0.00 0.25 0.15 1 1014.5
20260505172710 13 275 12.9 24.1 0.00 0.25 0.15 1 1014.5
20260505172607 13 259 12.9 24.1 0.00 0.25 0.15 1 1014.5
20260505172507 13 245 14.5 24.1 0.00 0.25 0.15 1 1014.6
20260505172406 13 279 14.5 24.1 0.00 0.25 0.15 1 1014.5
20260505172306 13 282 12.9 24.1 0.00 0.25 0.15 1 1014.6
20260505172207 13 283 12.9 24.1 0.00 0.25 0.15 1 1014.6
20260505172122 13 248 12.9 22.5 0.00 0.25 0.15 1 1014.5
20260505172118 13 300 12.9 22.5 0.00 0.25 0.15 1 1014.5
20260505172113 13 251 12.9 22.5 0.00 0.25 0.15 1 1014.6
20260505171805 13 285 12.9 22.5 0.00 0.25 0.15 1 1014.5
20260505171705 13 273 12.9 22.5 0.00 0.25 0.15 1 1014.4
20260505171605 13 300 12.9 22.5 0.00 0.25 0.15 1 1014.4
20260505171504 13 265 12.9 22.5 0.00 0.25 0.15 1 1014.4
20260505171405 13 296 12.9 22.5 0.00 0.25 0.15 1 1014.4
20260505171305 13 279 12.9 22.5 0.00 0.25 0.15 1 1014.4
20260505171205 13 245 11.3 22.5 0.00 0.25 0.15 1 1014.5
20260505171105 13 273 11.3 20.9 0.00 0.25 0.15 1 1014.4
20260505171004 13 273 11.3 20.9 0.00 0.25 0.15 1 1014.4
20260505170907 13 277 11.3 20.9 0.00 0.25 0.15 1 1014.4
20260505170902 13 258 11.3 20.9 0.00 0.25 0.15 1 1014.4
20260505170658 13 299 11.3 20.9 0.00 0.25 0.15 1 1014.4
20260505170558 13 288 9.7 20.9 0.00 0.25 0.15 1 1014.4
20260505170458 13 277 9.7 20.9 0.00 0.25 0.15 1 1014.4
20260505170353 13 282 9.7 22.5 0.00 0.25 0.15 1 1014.3
20260505170253 12 277 9.7 22.5 0.00 0.25 0.15 1 1014.4
20260505170152 12 284 9.7 22.5 0.00 0.25 0.15 1 1014.3
20260505165952 12 282 9.7 22.5 0.00 0.25 0.15 1 1014.4
20260505165846 12 280 11.3 22.5 0.00 0.25 0.15 1 1014.4
20260505165746 12 293 11.3 22.5 0.00 0.25 0.15 1 1014.4
20260505165646 12 268 11.3 22.5 0.00 0.25 0.15 1 1014.4
20260505165546 12 281 11.3 22.5 0.00 0.25 0.15 1 1014.4
20260505165446 12 284 11.3 22.5 0.00 0.25 0.15 1 1014.4
20260505165340 12 304 11.3 22.5 0.00 0.25 0.15 1 1014.4
20260505165249 12 279 12.9 22.5 0.00 0.25 0.15 1 1014.4
20260505165245 12 296 11.3 22.5 0.00 0.25 0.15 1 1014.4
20260505165040 12 312 12.9 22.5 0.00 0.25 0.15 1 1014.4
20260505164940 12 277 11.3 22.5 0.00 0.25 0.15 1 1014.3
20260505164835 12 277 11.3 22.5 0.00 0.25 0.15 1 1014.4
20260505164734 12 270 11.3 17.7 0.00 0.25 0.15 1 1014.4
20260505164634 12 281 11.3 19.3 0.00 0.25 0.15 1 1014.3
20260505164542 12 276 11.3 19.3 0.00 0.25 0.15 1 1014.3
20260505164538 12 293 11.3 19.3 0.00 0.25 0.15 1 1014.3
20260505164329 12 263 11.3 19.3 0.00 0.25 0.15 1 1014.4
20260505164228 12 286 11.3 19.3 0.00 0.25 0.15 1 1014.4
20260505164128 12 276 11.3 19.3 0.00 0.25 0.15 1 1014.3
20260505164029 12 279 11.3 19.3 0.00 0.25 0.15 1 1014.3
20260505163928 12 300 11.3 19.3 0.00 0.25 0.15 1 1014.4
20260505163822 12 269 11.3 19.3 0.00 0.25 0.15 1 1014.4
20260505163723 12 252 11.3 20.9 0.00 0.25 0.15 1 1014.4
20260505163623 12 309 11.3 20.9 0.00 0.25 0.15 1 1014.4
20260505163523 12 286 11.3 20.9 0.00 0.25 0.15 1 1014.4
20260505163422 12 281 11.3 20.9 0.00 0.25 0.15 1 1014.4
20260505163321 12 276 11.3 20.9 0.00 0.25 0.15 1 1014.4
20260505163219 12 285 11.3 20.9 0.00 0.25 0.15 1 1014.5
20260505163119 12 273 11.3 20.9 0.00 0.25 0.15 1 1014.4
20260505163018 12 277 11.3 20.9 0.00 0.25 0.15 1 1014.4
20260505162916 12 292 11.3 20.9 0.00 0.25 0.15 1 1014.4
20260505162812 12 269 11.3 20.9 0.00 0.25 0.15 1 1014.4
20260505162712 12 284 12.9 20.9 0.00 0.25 0.15 1 1014.4
20260505162612 12 313 12.9 20.9 0.00 0.25 0.15 1 1014.4
20260505162513 12 279 12.9 20.9 0.00 0.25 0.15 1 1014.4
20260505162409 12 262 11.3 20.9 0.00 0.25 0.15 1 1014.4
20260505162306 12 313 11.3 20.9 0.00 0.25 0.15 1 1014.4
20260505162203 12 269 12.9 20.9 0.00 0.25 0.15 1 1014.4
20260505162111 12 290 11.3 20.9 0.00 0.25 0.15 1 1014.4
20260505162107 12 299 12.9 20.9 0.00 0.25 0.15 1 1014.4
20260505161901 12 307 11.3 20.9 0.00 0.25 0.15 1 1014.3
20260505161756 12 284 11.3 20.9 0.00 0.25 0.15 1 1014.3
20260505161656 12 271 11.3 20.9 0.00 0.25 0.15 1 1014.3
20260505161557 12 307 11.3 20.9 0.00 0.25 0.15 1 1014.3
20260505161457 12 296 11.3 20.9 0.00 0.25 0.15 1 1014.3
20260505161354 12 284 11.3 20.9 0.00 0.25 0.15 1 1014.2
20260505161301 12 298 11.3 20.9 0.00 0.25 0.15 1 1014.2
20260505161256 12 279 11.3 20.9 0.00 0.25 0.15 1 1014.2
20260505161052 12 292 11.3 20.9 0.00 0.25 0.15 1 1014.2
20260505161000 12 279 12.9 20.9 0.00 0.25 0.15 1 1014.2
20260505160956 12 342 12.9 20.9 0.00 0.25 0.15 1 1014.2
20260505160753 12 300 12.9 20.9 0.00 0.25 0.15 1 1014.2
20260505160653 12 303 11.3 20.9 0.00 0.25 0.15 1 1014.2
20260505160552 12 284 11.3 20.9 0.00 0.25 0.15 1 1014.2
20260505160453 12 278 11.3 20.9 0.00 0.25 0.15 1 1014.2
20260505160353 12 277 11.3 20.9 0.00 0.25 0.15 1 1014.2
20260505160251 12 288 11.3 20.9 0.00 0.25 0.15 1 1014.1
20260505160150 12 288 9.7 20.9 0.00 0.25 0.15 1 1014.1
20260505153320 12 291 8.0 14.5 0.00 0.25 0.15 1 1014.0
20260505153220 12 253 8.0 16.1 0.00 0.25 0.15 1 1014.0
20260505153120 12 277 8.0 16.1 0.00 0.25 0.15 1 1013.9
20260505153014 12 284 8.0 17.7 0.00 0.25 0.15 1 1013.9
20260505152914 12 337 8.0 17.7 0.00 0.25 0.15 1 1013.9
20260505152814 12 261 9.7 17.7 0.00 0.25 0.15 1 1013.9
20260505152714 12 279 9.7 17.7 0.00 0.25 0.15 1 1013.9
20260505152614 12 268 9.7 17.7 0.00 0.25 0.15 1 1013.9
20260505152508 12 265 9.7 17.7 0.00 0.25 0.15 1 1013.9
20260505152408 12 277 9.7 17.7 0.00 0.25 0.15 1 1013.9
20260505152308 12 267 8.0 17.7 0.00 0.25 0.15 1 1013.9
20260505152209 12 290 8.0 17.7 0.00 0.25 0.15 1 1013.9
20260505152131 12 273 8.0 16.1 0.00 0.25 0.15 1 1014.0
20260505152127 12 248 8.0 14.5 0.00 0.25 0.15 1 1013.9
20260505151915 12 240 9.7 17.7 0.00 0.25 0.15 1 1013.9
20260505151910 12 273 9.7 16.1 0.00 0.25 0.15 1 1014.0
20260505151602 12 241 11.3 22.5 0.00 0.25 0.15 1 1014.0
20260505151456 12 272 11.3 22.5 0.00 0.25 0.15 1 1013.9
20260505151356 12 269 12.9 24.1 0.00 0.25 0.15 1 1013.9
20260505151328 12 273 12.9 24.1 0.00 0.25 0.15 1 1013.9
20260505151324 12 254 12.9 24.1 0.00 0.25 0.15 1 1013.9
20260505151320 12 271 12.9 24.1 0.00 0.25 0.15 1 1013.9
20260505151316 12 271 12.9 24.1 0.00 0.25 0.15 1 1013.9
20260505150854 12 252 14.5 24.1 0.00 0.25 0.15 1 1013.9
20260505150650 12 260 14.5 24.1 0.00 0.25 0.15 1 1013.9
20260505150550 12 252 12.9 24.1 0.00 0.25 0.15 1 1013.9
20260505150444 12 246 12.9 24.1 0.00 0.25 0.15 1 1013.8
20260505150344 12 247 12.9 24.1 0.00 0.25 0.15 1 1013.8
20260505150245 12 296 12.9 24.1 0.00 0.25 0.15 1 1013.8
20260505150144 12 274 12.9 24.1 0.00 0.25 0.15 1 1013.8
20260505140638 12 229 8.0 16.1 0.00 0.25 0.15 1 1013.5
20260505140538 12 239 8.0 16.1 0.00 0.25 0.15 1 1013.5
20260505140438 12 250 8.0 16.1 0.00 0.25 0.15 1 1013.5
20260505140333 12 238 8.0 16.1 0.00 0.25 0.15 1 1013.5
20260505140232 12 266 8.0 16.1 0.00 0.25 0.15 1 1013.4
20260505140133 12 217 8.0 16.1 0.00 0.25 0.15 1 1013.4
20260505130230 12 255 6.4 12.9 0.00 0.25 0.15 1 1013.1
20260505130131 12 238 6.4 12.9 0.00 0.25 0.15 1 1013.2
20260505125022 12 238 8.0 16.1 0.00 0.25 0.15 1 1013.3
20260505124922 12 256 8.0 16.1 0.00 0.25 0.15 1 1013.3
20260505124822 12 259 8.0 16.1 0.00 0.25 0.15 1 1013.2
20260505124721 12 244 8.0 16.1 0.00 0.25 0.15 1 1013.3
20260505124621 12 250 8.0 14.5 0.00 0.25 0.15 1 1013.3
20260505124518 12 246 8.0 14.5 0.00 0.25 0.15 1 1013.3
20260505124416 12 260 8.0 14.5 0.00 0.25 0.15 1 1013.3
20260505124317 12 233 6.4 14.5 0.00 0.25 0.15 1 1013.3
20260505124215 12 238 8.0 14.5 0.00 0.25 0.15 1 1013.2
20260505124116 12 254 8.0 14.5 0.00 0.25 0.15 1 1013.3
20260505124016 12 261 8.0 14.5 0.00 0.25 0.15 1 1013.3
20260505123914 11 246 8.0 14.5 0.00 0.25 0.15 1 1013.2
20260505123812 11 250 8.0 14.5 0.00 0.25 0.15 1 1013.2
20260505123713 11 250 8.0 14.5 0.00 0.25 0.15 1 1013.2
20260505123612 11 250 8.0 14.5 0.00 0.25 0.15 1 1013.2
20260505123512 11 243 8.0 14.5 0.00 0.25 0.15 1 1013.2
20260505123412 11 240 8.0 14.5 0.00 0.25 0.15 1 1013.2
20260505123312 11 239 8.0 14.5 0.00 0.25 0.15 1 1013.2
20260505123210 11 246 8.0 14.5 0.00 0.25 0.15 1 1013.2
20260505123110 11 257 8.0 14.5 0.00 0.25 0.15 1 1013.2
20260505123010 11 257 8.0 14.5 0.00 0.25 0.15 1 1013.2
20260505122910 11 255 8.0 14.5 0.00 0.25 0.15 1 1013.2
20260505122810 11 265 8.0 14.5 0.00 0.25 0.15 1 1013.2
20260505122710 11 267 8.0 14.5 0.00 0.25 0.15 1 1013.2
20260505122610 11 239 6.4 14.5 0.00 0.25 0.15 1 1013.2
20260505122510 11 275 6.4 12.9 0.00 0.25 0.15 1 1013.2
20260505122410 11 269 8.0 12.9 0.00 0.25 0.15 1 1013.2
20260505122310 11 238 8.0 14.5 0.00 0.25 0.15 1 1013.2
20260505122207 11 271 8.0 14.5 0.00 0.25 0.15 1 1013.3
20260505122107 11 234 8.0 14.5 0.00 0.25 0.15 1 1013.2
20260505122008 11 267 8.0 14.5 0.00 0.25 0.15 1 1013.2
20260505121908 11 252 8.0 14.5 0.00 0.25 0.15 1 1013.2
20260505121808 11 262 8.0 17.7 0.00 0.25 0.15 1 1013.2
20260505121708 11 250 9.7 17.7 0.00 0.25 0.15 1 1013.1
20260505121608 11 231 9.7 17.7 0.00 0.25 0.15 1 1013.2
20260505121507 11 227 9.7 17.7 0.00 0.25 0.15 1 1013.2
20260505121408 11 252 9.7 17.7 0.00 0.25 0.15 1 1013.2
20260505121308 11 246 8.0 17.7 0.00 0.25 0.15 1 1013.2
20260505121208 11 267 8.0 17.7 0.00 0.25 0.15 1 1013.2
20260505121108 11 272 8.0 17.7 0.00 0.25 0.15 1 1013.3
20260505121008 11 242 8.0 17.7 0.00 0.25 0.15 1 1013.2
20260505120908 11 241 8.0 17.7 0.00 0.25 0.15 1 1013.3
20260505120808 11 273 8.0 16.1 0.00 0.25 0.15 1 1013.2
20260505120708 11 271 8.0 14.5 0.00 0.25 0.15 1 1013.2
20260505120608 11 292 8.0 14.5 0.00 0.25 0.15 1 1013.2
20260505120519 11 291 8.0 14.5 0.00 0.25 0.15 1 1013.2
20260505120411 11 252 8.0 14.5 0.00 0.25 0.15 1 1013.2
20260505120006 11 240 8.0 14.5 0.00 0.25 0.15 1 1013.2
20260505115906 11 242 6.4 14.5 0.00 0.25 0.15 1 1013.2
20260505115806 11 252 6.4 14.5 0.00 0.25 0.15 1 1013.2
20260505115714 11 256 6.4 14.5 0.00 0.25 0.15 1 1013.2
20260505115710 11 248 6.4 14.5 0.00 0.25 0.15 1 1013.2
20260505115506 11 260 6.4 14.5 0.00 0.25 0.15 1 1013.3
20260505115406 11 283 6.4 12.9 0.00 0.25 0.15 1 1013.3
20260505115306 11 291 6.4 12.9 0.00 0.25 0.15 1 1013.2
20260505115202 11 236 6.4 9.7 0.00 0.25 0.15 1 1013.2
20260505115102 11 256 6.4 11.3 0.00 0.25 0.15 1 1013.2
20260505115002 11 246 6.4 11.3 0.00 0.25 0.15 1 1013.2
20260505114902 11 262 6.4 11.3 0.00 0.25 0.15 1 1013.2
20260505114802 11 289 6.4 11.3 0.00 0.25 0.15 1 1013.2
20260505114702 11 255 6.4 11.3 0.00 0.25 0.15 1 1013.1
20260505114602 11 238 6.4 11.3 0.00 0.25 0.15 1 1013.2
20260505114502 11 248 6.4 11.3 0.00 0.25 0.15 1 1013.1
20260505114401 11 257 6.4 11.3 0.00 0.25 0.15 1 1013.2
20260505114302 11 257 6.4 11.3 0.00 0.25 0.15 1 1013.2
20260505114202 11 249 6.4 11.3 0.00 0.25 0.15 1 1013.2
20260505114102 11 251 6.4 11.3 0.00 0.25 0.15 1 1013.2
20260505114002 11 269 6.4 11.3 0.00 0.25 0.15 1 1013.2
20260505113902 11 209 6.4 11.3 0.00 0.25 0.15 1 1013.1
20260505113801 11 228 6.4 11.3 0.00 0.25 0.15 1 1013.2
20260505113701 11 240 6.4 11.3 0.00 0.25 0.15 1 1013.2
20260505113601 11 250 4.8 11.3 0.00 0.25 0.15 1 1013.1
20260505113502 11 227 4.8 11.3 0.00 0.25 0.15 1 1013.2
20260505113402 11 277 4.8 11.3 0.00 0.25 0.15 1 1013.3
20260505113258 11 248 4.8 11.3 0.00 0.25 0.15 1 1013.3
20260505113206 11 254 4.8 11.3 0.00 0.25 0.15 1 1013.3
20260505113202 11 236 4.8 11.3 0.00 0.25 0.15 1 1013.3
20260505112958 11 254 4.8 12.9 0.00 0.25 0.15 1 1013.4
20260505112857 11 255 4.8 12.9 0.00 0.25 0.15 1 1013.4
20260505112757 11 254 4.8 12.9 0.00 0.25 0.15 1 1013.4
20260505112658 11 270 4.8 12.9 0.00 0.25 0.15 1 1013.4
20260505112558 11 247 6.4 12.9 0.00 0.25 0.15 1 1013.4
20260505112458 11 268 4.8 12.9 0.00 0.25 0.15 1 1013.4
20260505112357 11 279 6.4 12.9 0.00 0.25 0.15 1 1013.3
20260505112257 11 279 6.4 12.9 0.00 0.25 0.15 1 1013.3
20260505112157 11 277 6.4 12.9 0.00 0.25 0.15 1 1013.3
20260505112058 11 227 6.4 12.9 0.00 0.25 0.15 1 1013.3
20260505111958 11 263 6.4 11.3 0.00 0.25 0.15 1 1013.3
20260505111858 11 263 6.4 12.9 0.03 0.25 0.15 1 1013.3
20260505111758 11 224 6.4 12.9 0.03 0.25 0.15 1 1013.3
20260505111658 11 275 6.4 12.9 0.03 0.25 0.15 1 1013.3
20260505111558 11 279 6.4 12.9 0.03 0.25 0.15 1 1013.3
20260505111457 11 277 6.4 12.9 0.03 0.25 0.15 1 1013.3
20260505111354 11 279 6.4 12.9 0.03 0.25 0.15 1 1013.3
20260505111254 11 270 6.4 12.9 0.03 0.25 0.15 1 1013.3
20260505111154 11 266 6.4 12.9 0.03 0.25 0.15 1 1013.2
20260505111054 11 266 6.4 12.9 0.03 0.25 0.15 1 1013.2
20260505110953 11 250 6.4 12.9 0.03 0.25 0.15 1 1013.2
20260505110854 11 259 6.4 11.3 0.03 0.25 0.15 1 1013.2
20260505110753 11 273 6.4 11.3 0.03 0.25 0.15 1 1013.2
20260505110654 11 262 6.4 11.3 0.03 0.25 0.15 1 1013.2
20260505110554 11 257 6.4 11.3 0.03 0.25 0.15 1 1013.3
20260505110454 11 234 6.4 11.3 0.03 0.25 0.15 1 1013.2
20260505110353 11 250 6.4 11.3 0.03 0.25 0.15 1 1013.2
20260505110253 11 256 6.4 11.3 0.03 0.25 0.15 1 1013.3
20260505110203 11 273 4.8 11.3 0.03 0.25 0.15 1 1013.2
20260505110159 11 260 6.4 11.3 0.03 0.25 0.15 1 1013.3